Location: Unspecified
(40.3340°N, 3.5349°W)
Time: 09:19:25
(UTC+02:00)

ISS - Visible Passes

Search period start: 24 May 2025 00:00
Search period end: 03 June 2025 00:00
Orbit: 416 x 419 km, 51.6° (Epoch: 23 May)

Date Brightness Start Highest point End Pass type
(mag) Time Alt. Az. Time Alt. Az. Time Alt. Az.
24 May -3.5 23:05:24 10° NW 23:08:44 63° NE 23:10:00 33° ESE visible
25 May -2.7 22:16:54 10° NW 22:20:04 38° NNE 22:23:13 10° E visible
25 May -2.0 23:53:51 10° WNW 23:56:06 23° WSW 23:56:06 23° WSW visible
26 May -3.1 23:04:36 10° WNW 23:07:49 44° SW 23:09:01 30° S visible
27 May -3.8 22:15:13 10° NW 22:18:34 84° SW 22:21:41 12° SE visible
28 May -1.5 23:03:06 10° W 23:05:17 16° SW 23:06:55 12° SSW visible
29 May -2.3 22:12:31 10° WNW 22:15:29 29° SW 22:18:25 10° SSE visible
31 May -1.0 22:09:40 10° WSW 22:10:46 11° SW 22:11:53 10° SSW visible
